QPF
0.01 0.00 0.00 0.01 0.01 0.01 0.01 0.01 0.01 0.01 0.01 0.01 0.00 0.00 0.00 0.00 0.01 0.01 0.01 0.02 0.02 0.01 0.01 0.01 0.01 0.01 0.01 0.02 0.02 0.02 0.02 0.01 0.01 0.01 0.01 0.01 0.01 0.01 0.02 0.02 0.02 0.02 0.02 0.02
0.00 0.00 0.00 0.00 0.00 0.00 0.00 0.00 0.01 0.00 0.01 0.01 0.01 0.00 0.00 0.00 0.01 0.01 0.01 0.01 0.02 0.01 0.01 0.01 0.01 0.01 0.01 0.01 0.01 0.01 0.01 0.00 0.00 0.00 0.00 0.00 0.00 0.01 0.01 0.02 0.02 0.02 0.02 0.02
0.01 0.00 0.01 0.01 0.00 0.00 0.00 0.00 0.01 0.01 0.01 0.00 0.00 0.00 0.00 0.00 0.00 0.01 0.01 0.01 0.01 0.01 0.01 0.01 0.01 0.01 0.01 0.01 0.01 0.00 0.00 0.00 0.00 0.00 0.00 0.00 0.00 0.01 0.01 0.01 0.01 0.01 0.02 0.02
0.02 0.01 0.01 0.01 0.00 0.00 0.00 0.00 0.00 0.01 0.01 0.01 0.00 0.00 0.00 0.00 0.00 0.01 0.01 0.01 0.01 0.01 0.01 0.01 0.01 0.01 0.01 0.01 0.00 0.00 0.00 0.00 0.00 0.00 0.00 0.00 0.01 0.00 0.01 0.01 0.01 0.02 0.02 0.02
0.03 0.02 0.01 0.00 0.00 0.00 0.00 0.00 0.00 0.01 0.00 0.01 0.00 0.00 0.00 0.00 0.00 0.00 0.00 0.00 0.01 0.01 0.01 0.01 0.00 0.00 0.00 0.00 0.00 0.00 0.00 0.00 0.00 0.00 0.00 0.01 0.01 0.01 0.01 0.01 0.01 0.02 0.02 0.02
0.04 0.03 0.02 0.01 0.00 0.00 0.00 0.01 0.01 0.00 0.00 0.00 0.01 0.01 0.01 0.00 0.00 0.00 0.00 0.00 0.00 0.01 0.00 0.00 0.00 0.00 0.00 0.01 0.01 0.01 0.00 0.00 0.00 0.00 0.00 0.01 0.01 0.01 0.01 0.01 0.02 0.02 0.03 0.02
0.03 0.03 0.01 0.00 0.00 0.00 0.01 0.01 0.01 0.01 0.01 0.01 0.01 0.01 0.00 0.00 0.00 0.00 0.00 0.00 0.00 0.00 0.00 0.00 0.00 0.00 0.00 0.01 0.01 0.01 0.01 0.00 0.00 0.00 0.01 0.01 0.01 0.01 0.01 0.02 0.02 0.02 0.02 0.02
0.02 0.02 0.01 0.00 0.00 0.00 0.01 0.00 0.00 0.00 0.00 0.00 0.00 0.00 0.00 0.00 0.00 0.00 0.00 0.00 0.00 0.00 0.00 0.00 0.00 0.00 0.01 0.01 0.01 0.01 0.01 0.01 0.01 0.01 0.01 0.01 0.01 0.01 0.01 0.02 0.02 0.02 0.02 0.02
0.01 0.01 0.00 0.00 0.00 0.00 0.00 0.00 0.00 0.00 0.00 0.00 0.00 0.00 0.00 0.00 0.00 0.00 0.00 0.00 0.00 0.00 0.00 0.00 0.00 0.00 0.01 0.01 0.01 0.01 0.01 0.01 0.01 0.01 0.01 0.01 0.02 0.02 0.02 0.02 0.02 0.01 0.01 0.01
0.01 0.00 0.00 0.00 0.00 0.00 0.00 0.00 0.00 0.00 0.00 0.00 0.01 0.01 0.01 0.00 0.00 0.00 0.00 0.00 0.00 0.00 0.00 0.00 0.00 0.00 0.01 0.01 0.01 0.01 0.01 0.01 0.01 0.01 0.01 0.01 0.03 0.02 0.01 0.01 0.01 0.01 0.01 0.01
0.00 0.00 0.00 0.00 0.00 0.00 0.00 0.00 0.00 0.00 0.00 0.00 0.00 0.01 0.00 0.00 0.00 0.00 0.00 0.00 0.00 0.00 0.00 0.00 0.00 0.01 0.01 0.00 0.01 0.01 0.01 0.01 0.01 0.01 0.01 0.02 0.03 0.02 0.02 0.01 0.01 0.01 0.02 0.01
0.01 0.00 0.00 0.00 0.00 0.00 0.00 0.00 0.00 0.00 0.00 0.00 0.00 0.00 0.00 0.00 0.00 0.00 0.00 0.00 0.00 0.00 0.01 0.01 0.01 0.01 0.00 0.00 0.01 0.01 0.01 0.01 0.01 0.01 0.02 0.02 0.02 0.02 0.02 0.02 0.01 0.01 0.01 0.01
0.00 0.00 0.00 0.00 0.00 0.00 0.00 0.00 0.00 0.00 0.01 0.01 0.00 0.00 0.01 0.00 0.00 0.00 0.00 0.00 0.01 0.01 0.01 0.01 0.01 0.01 0.00 0.01 0.01 0.01 0.01 0.01 0.01 0.01 0.02 0.02 0.01 0.02 0.02 0.02 0.01 0.01 0.01 0.01
0.00 0.00 0.00 0.00 0.00 0.00 0.00 0.00 0.00 0.00 0.01 0.01 0.01 0.00 0.00 0.00 0.00 0.00 0.00 0.00 0.01 0.01 0.01 0.01 0.00 0.00 0.00 0.01 0.01 0.01 0.01 0.01 0.01 0.01 0.01 0.02 0.01 0.01 0.01 0.01 0.01 0.01 0.01 0.01
0.00 0.00 0.00 0.00 0.00 0.00 0.00 0.00 0.00 0.00 0.01 0.01 0.01 0.00 0.01 0.01 0.00 0.00 0.00 0.00 0.00 0.01 0.00 0.00 0.01 0.01 0.01 0.01 0.01 0.01 0.01 0.01 0.01 0.01 0.01 0.01 0.02 0.01 0.01 0.01 0.01 0.01 0.01 0.01
0.00 0.00 0.00 0.00 0.00 0.00 0.00 0.00 0.00 0.00 0.00 0.01 0.01 0.01 0.01 0.01 0.01 0.00 0.00 0.00 0.01 0.01 0.00 0.01 0.01 0.01 0.01 0.01 0.01 0.01 0.01 0.02 0.02 0.02 0.01 0.01 0.01 0.02 0.01 0.01 0.01 0.01 0.01 0.01
0.00 0.00 0.00 0.00 0.00 0.00 0.00 0.00 0.00 0.00 0.00 0.00 0.01 0.01 0.01 0.01 0.01 0.01 0.01 0.01 0.01 0.01 0.01 0.01 0.01 0.01 0.01 0.01 0.01 0.02 0.02 0.02 0.02 0.02 0.01 0.01 0.01 0.01 0.01 0.01 0.01 0.02 0.02 0.01
0.00 0.00 0.00 0.00 0.00 0.00 0.00 0.00 0.00 0.00 0.00 0.00 0.00 0.01 0.01 0.01 0.01 0.01 0.01 0.01 0.01 0.01 0.01 0.02 0.01 0.01 0.01 0.01 0.02 0.02 0.02 0.02 0.02 0.02 0.01 0.01 0.02 0.02 0.02 0.02 0.02 0.02 0.02 0.02
0.00 0.00 0.00 0.00 0.00 0.00 0.00 0.00 0.00 0.00 0.00 0.00 0.00 0.00 0.01 0.01 0.01 0.01 0.01 0.01 0.01 0.01 0.02 0.02 0.02 0.01 0.01 0.01 0.02 0.01 0.01 0.01 0.01 0.01 0.01 0.02 0.02 0.02 0.02 0.02 0.03 0.03 0.03 0.03
0.00 0.00 0.00 0.00 0.00 0.00 0.00 0.00 0.00 0.00 0.00 0.00 0.00 0.00 0.00 0.00 0.01 0.01 0.01 0.01 0.01 0.01 0.01 0.02 0.01 0.01 0.01 0.01 0.01 0.01 0.01 0.01 0.01 0.01 0.01 0.01 0.02 0.02 0.02 0.02 0.02 0.03 0.02 0.02
0.00 0.00 0.00 0.00 0.00 0.00 0.00 0.00 0.00 0.00 0.00 0.00 0.00 0.00 0.00 0.00 0.00 0.01 0.01 0.01 0.01 0.01 0.01 0.01 0.01 0.01 0.01 0.01 0.01 0.01 0.01 0.01 0.01 0.01 0.01 0.01 0.01 0.02 0.02 0.02 0.02 0.02 0.02 0.02
0.00 0.00 0.00 0.01 0.00 0.00 0.00 0.00 0.00 0.01 0.01 0.01 0.01 0.01 0.00 0.00 0.00 0.00 0.00 0.01 0.01 0.01 0.01 0.01 0.01 0.01 0.01 0.02 0.02 0.01 0.01 0.01 0.01 0.01 0.01 0.01 0.02 0.02 0.02 0.02 0.02 0.02 0.02 0.02
0.00 0.00 0.00 0.01 0.01 0.01 0.01 0.01 0.00 0.00 0.00 0.01 0.01 0.01 0.00 0.00 0.00 0.01 0.01 0.01 0.01 0.01 0.01 0.01 0.01 0.01 0.02 0.02 0.01 0.01 0.01 0.01 0.01 0.01 0.01 0.01 0.02 0.02 0.02 0.02 0.02 0.02 0.03 0.02
0.00 0.00 0.00 0.01 0.01 0.01 0.01 0.01 0.00 0.00 0.00 0.00 0.00 0.00 0.00 0.00 0.00 0.01 0.01 0.01 0.01 0.01 0.01 0.01 0.01 0.01 0.01 0.01 0.01 0.01 0.01 0.01 0.01 0.01 0.01 0.01 0.01 0.02 0.02 0.02 0.02 0.02 0.02 0.02
0.00 0.00 0.00 0.00 0.00 0.00 0.00 0.00 0.00 0.00 0.00 0.00 0.00 0.00 0.00 0.01 0.01 0.01 0.01 0.01 0.01 0.01 0.01 0.01 0.01 0.01 0.01 0.01 0.01 0.01 0.01 0.01 0.01 0.01 0.01 0.01 0.01 0.01 0.01 0.01 0.02 0.02 0.02 0.02
0.00 0.01 0.01 0.01 0.01 0.01 0.01 0.00 0.00 0.00 0.00 0.00 0.00 0.00 0.01 0.01 0.01 0.01 0.01 0.01 0.01 0.01 0.01 0.01 0.01 0.01 0.01 0.01 0.01 0.01 0.01 0.01 0.01 0.01 0.01 0.01 0.01 0.01 0.01 0.01 0.01 0.01 0.01 0.02
0.00 0.00 0.01 0.00 0.00 0.00 0.01 0.01 0.01 0.01 0.01 0.00 0.01 0.01 0.01 0.01 0.01 0.01 0.01 0.01 0.01 0.01 0.01 0.01 0.01 0.01 0.01 0.01 0.01 0.01 0.01 0.01 0.01 0.01 0.01 0.01 0.01 0.01 0.01 0.01 0.01 0.01 0.01 0.01
MSLP
1023.22 1023.57 1023.87 1024.13 1024.32 1024.42 1024.42 1024.31 1024.09 1023.78 1023.41 1023.02 1022.66 1022.36 1022.15 1022.06 1022.07 1022.16 1022.30 1022.42 1022.49 1022.44 1022.27 1021.95 1021.51 1020.97 1020.37 1019.76 1019.17 1018.63 1018.15 1017.72 1017.33 1016.94 1016.52 1016.07 1015.55 1014.99 1014.39 1013.79 1013.23 1012.75 1012.38 1012.16
1023.52 1023.66 1023.75 1023.82 1023.85 1023.86 1023.83 1023.76 1023.65 1023.49 1023.30 1023.10 1022.90 1022.74 1022.64 1022.60 1022.61 1022.66 1022.73 1022.78 1022.76 1022.65 1022.43 1022.08 1021.62 1021.08 1020.47 1019.85 1019.24 1018.66 1018.13 1017.64 1017.18 1016.72 1016.25 1015.74 1015.19 1014.61 1014.00 1013.41 1012.86 1012.39 1012.04 1011.84
1023.86 1023.76 1023.62 1023.48 1023.36 1023.26 1023.20 1023.17 1023.16 1023.15 1023.15 1023.14 1023.13 1023.12 1023.13 1023.14 1023.17 1023.20 1023.22 1023.20 1023.11 1022.95 1022.68 1022.32 1021.85 1021.31 1020.71 1020.08 1019.45 1018.84 1018.25 1017.69 1017.16 1016.62 1016.08 1015.52 1014.92 1014.32 1013.71 1013.12 1012.58 1012.14 1011.82 1011.64
1024.16 1023.85 1023.50 1023.17 1022.89 1022.71 1022.63 1022.63 1022.72 1022.86 1023.03 1023.21 1023.37 1023.51 1023.61 1023.69 1023.73 1023.74 1023.72 1023.64 1023.51 1023.31 1023.03 1022.66 1022.20 1021.67 1021.08 1020.45 1019.80 1019.15 1018.50 1017.87 1017.24 1016.63 1016.01 1015.39 1014.76 1014.13 1013.52 1012.94 1012.44 1012.02 1011.73 1011.58
1024.36 1023.87 1023.36 1022.89 1022.52 1022.28 1022.20 1022.26 1022.44 1022.71 1023.04 1023.36 1023.66 1023.92 1024.10 1024.22 1024.28 1024.27 1024.22 1024.11 1023.94 1023.72 1023.43 1023.07 1022.64 1022.13 1021.56 1020.92 1020.25 1019.56 1018.84 1018.13 1017.42 1016.72 1016.03 1015.35 1014.68 1014.04 1013.43 1012.88 1012.41 1012.03 1011.77 1011.64
1024.37 1023.79 1023.20 1022.66 1022.26 1022.02 1021.97 1022.10 1022.38 1022.76 1023.20 1023.64 1024.04 1024.36 1024.60 1024.74 1024.79 1024.77 1024.69 1024.55 1024.37 1024.14 1023.86 1023.53 1023.12 1022.64 1022.08 1021.45 1020.76 1020.01 1019.24 1018.45 1017.66 1016.87 1016.11 1015.38 1014.68 1014.04 1013.44 1012.92 1012.48 1012.14 1011.92 1011.81
1024.16 1023.58 1022.99 1022.49 1022.13 1021.95 1021.98 1022.19 1022.56 1023.03 1023.54 1024.05 1024.50 1024.86 1025.10 1025.24 1025.27 1025.23 1025.12 1024.96 1024.78 1024.56 1024.30 1023.98 1023.61 1023.15 1022.61 1021.98 1021.26 1020.48 1019.65 1018.79 1017.92 1017.06 1016.24 1015.46 1014.75 1014.10 1013.53 1013.04 1012.64 1012.34 1012.14 1012.05
1023.76 1023.26 1022.77 1022.38 1022.13 1022.07 1022.20 1022.51 1022.96 1023.49 1024.05 1024.59 1025.04 1025.38 1025.61 1025.71 1025.71 1025.63 1025.50 1025.33 1025.15 1024.94 1024.70 1024.42 1024.07 1023.64 1023.11 1022.48 1021.74 1020.92 1020.04 1019.11 1018.18 1017.26 1016.39 1015.58 1014.85 1014.20 1013.65 1013.20 1012.84 1012.57 1012.41 1012.34
1023.25 1022.89 1022.58 1022.35 1022.27 1022.36 1022.62 1023.03 1023.54 1024.11 1024.68 1025.20 1025.62 1025.92 1026.09 1026.15 1026.11 1026.00 1025.84 1025.67 1025.48 1025.29 1025.07 1024.81 1024.49 1024.08 1023.56 1022.92 1022.17 1021.31 1020.38 1019.41 1018.42 1017.46 1016.55 1015.72 1014.98 1014.34 1013.80 1013.38 1013.05 1012.81 1012.67 1012.62
1022.75 1022.59 1022.48 1022.46 1022.56 1022.81 1023.20 1023.68 1024.24 1024.82 1025.37 1025.84 1026.20 1026.44 1026.55 1026.55 1026.46 1026.32 1026.15 1025.97 1025.79 1025.61 1025.41 1025.17 1024.86 1024.46 1023.94 1023.30 1022.53 1021.65 1020.69 1019.68 1018.66 1017.67 1016.73 1015.88 1015.12 1014.49 1013.96 1013.55 1013.24 1013.03 1012.91 1012.86
1022.44 1022.47 1022.56 1022.73 1023.01 1023.40 1023.88 1024.42 1024.99 1025.55 1026.05 1026.46 1026.75 1026.92 1026.96 1026.91 1026.79 1026.62 1026.44 1026.25 1026.08 1025.91 1025.72 1025.48 1025.18 1024.78 1024.27 1023.61 1022.84 1021.95 1020.97 1019.95 1018.91 1017.89 1016.93 1016.06 1015.30 1014.66 1014.13 1013.72 1013.41 1013.20 1013.08 1013.03
1022.43 1022.63 1022.89 1023.21 1023.62 1024.10 1024.63 1025.18 1025.73 1026.24 1026.67 1027.00 1027.22 1027.32 1027.32 1027.23 1027.09 1026.91 1026.72 1026.54 1026.37 1026.20 1026.01 1025.77 1025.46 1025.06 1024.53 1023.88 1023.10 1022.21 1021.24 1020.21 1019.17 1018.15 1017.18 1016.30 1015.52 1014.86 1014.31 1013.87 1013.55 1013.32 1013.18 1013.12
1022.79 1023.11 1023.48 1023.89 1024.36 1024.87 1025.39 1025.92 1026.40 1026.84 1027.19 1027.45 1027.60 1027.66 1027.62 1027.52 1027.37 1027.20 1027.02 1026.84 1026.67 1026.49 1026.28 1026.03 1025.70 1025.28 1024.75 1024.09 1023.32 1022.45 1021.50 1020.49 1019.47 1018.46 1017.49 1016.60 1015.80 1015.10 1014.51 1014.03 1013.66 1013.39 1013.21 1013.12
1023.49 1023.87 1024.28 1024.73 1025.19 1025.66 1026.13 1026.58 1026.98 1027.33 1027.60 1027.79 1027.90 1027.92 1027.88 1027.79 1027.65 1027.49 1027.32 1027.15 1026.96 1026.76 1026.53 1026.25 1025.89 1025.45 1024.91 1024.26 1023.51 1022.67 1021.76 1020.80 1019.81 1018.82 1017.87 1016.97 1016.14 1015.40 1014.75 1014.21 1013.77 1013.43 1013.19 1013.05
1024.44 1024.82 1025.22 1025.63 1026.03 1026.42 1026.79 1027.14 1027.44 1027.69 1027.89 1028.04 1028.11 1028.14 1028.11 1028.03 1027.92 1027.79 1027.63 1027.45 1027.24 1027.01 1026.74 1026.41 1026.02 1025.56 1025.01 1024.37 1023.66 1022.86 1022.01 1021.10 1020.17 1019.23 1018.30 1017.39 1016.54 1015.75 1015.04 1014.41 1013.88 1013.46 1013.14 1012.93
1025.47 1025.82 1026.16 1026.48 1026.79 1027.07 1027.33 1027.56 1027.77 1027.94 1028.08 1028.19 1028.26 1028.30 1028.30 1028.26 1028.18 1028.06 1027.91 1027.71 1027.48 1027.20 1026.87 1026.50 1026.06 1025.57 1025.02 1024.41 1023.73 1023.00 1022.22 1021.40 1020.53 1019.65 1018.75 1017.86 1016.98 1016.15 1015.36 1014.65 1014.03 1013.50 1013.09 1012.80
1026.41 1026.69 1026.96 1027.19 1027.39 1027.56 1027.71 1027.84 1027.96 1028.07 1028.18 1028.27 1028.36 1028.42 1028.45 1028.45 1028.40 1028.29 1028.13 1027.92 1027.64 1027.30 1026.91 1026.48 1026.00 1025.48 1024.93 1024.35 1023.73 1023.07 1022.38 1021.64 1020.87 1020.05 1019.20 1018.33 1017.44 1016.57 1015.72 1014.92 1014.20 1013.58 1013.07 1012.69
1027.10 1027.33 1027.52 1027.66 1027.77 1027.84 1027.90 1027.96 1028.02 1028.10 1028.19 1028.29 1028.40 1028.49 1028.56 1028.59 1028.55 1028.45 1028.27 1028.01 1027.68 1027.28 1026.83 1026.34 1025.82 1025.28 1024.74 1024.18 1023.62 1023.05 1022.45 1021.81 1021.13 1020.40 1019.61 1018.76 1017.88 1016.98 1016.08 1015.22 1014.41 1013.69 1013.09 1012.62
1027.46 1027.64 1027.78 1027.86 1027.90 1027.92 1027.92 1027.94 1027.97 1028.03 1028.13 1028.25 1028.38 1028.51 1028.60 1028.64 1028.61 1028.49 1028.28 1027.98 1027.59 1027.13 1026.61 1026.07 1025.51 1024.96 1024.43 1023.91 1023.41 1022.92 1022.42 1021.88 1021.30 1020.65 1019.93 1019.13 1018.27 1017.36 1016.43 1015.52 1014.64 1013.85 1013.17 1012.62
1027.48 1027.65 1027.75 1027.81 1027.82 1027.81 1027.80 1027.80 1027.83 1027.90 1028.01 1028.15 1028.31 1028.45 1028.55 1028.60 1028.55 1028.41 1028.16 1027.80 1027.35 1026.83 1026.26 1025.68 1025.09 1024.54 1024.02 1023.55 1023.11 1022.70 1022.28 1021.84 1021.35 1020.79 1020.14 1019.40 1018.57 1017.68 1016.74 1015.80 1014.89 1014.04 1013.30 1012.69
1027.24 1027.40 1027.51 1027.57 1027.58 1027.58 1027.57 1027.59 1027.63 1027.72 1027.85 1028.00 1028.17 1028.31 1028.41 1028.44 1028.36 1028.18 1027.89 1027.48 1026.99 1026.42 1025.81 1025.20 1024.60 1024.05 1023.55 1023.12 1022.74 1022.39 1022.05 1021.70 1021.29 1020.81 1020.23 1019.55 1018.77 1017.91 1016.99 1016.05 1015.13 1014.26 1013.48 1012.83
1026.83 1027.01 1027.14 1027.22 1027.26 1027.28 1027.30 1027.34 1027.41 1027.52 1027.65 1027.81 1027.96 1028.09 1028.17 1028.16 1028.05 1027.83 1027.49 1027.05 1026.51 1025.91 1025.28 1024.66 1024.07 1023.53 1023.06 1022.66 1022.32 1022.03 1021.75 1021.46 1021.12 1020.70 1020.19 1019.57 1018.85 1018.04 1017.16 1016.25 1015.35 1014.48 1013.70 1013.02
1026.36 1026.58 1026.74 1026.85 1026.93 1026.99 1027.04 1027.10 1027.19 1027.30 1027.43 1027.57 1027.70 1027.80 1027.83 1027.78 1027.63 1027.37 1027.00 1026.52 1025.97 1025.36 1024.73 1024.11 1023.53 1023.01 1022.56 1022.19 1021.89 1021.63 1021.39 1021.14 1020.85 1020.48 1020.03 1019.47 1018.81 1018.06 1017.25 1016.39 1015.53 1014.69 1013.93 1013.25
1025.93 1026.18 1026.37 1026.52 1026.63 1026.72 1026.80 1026.88 1026.97 1027.08 1027.19 1027.31 1027.40 1027.45 1027.43 1027.34 1027.14 1026.85 1026.45 1025.96 1025.40 1024.80 1024.18 1023.58 1023.02 1022.52 1022.09 1021.74 1021.46 1021.21 1020.99 1020.76 1020.49 1020.17 1019.75 1019.25 1018.65 1017.98 1017.23 1016.45 1015.65 1014.87 1014.14 1013.49
1025.57 1025.84 1026.07 1026.24 1026.39 1026.50 1026.60 1026.69 1026.77 1026.86 1026.95 1027.02 1027.06 1027.06 1027.00 1026.85 1026.62 1026.30 1025.88 1025.40 1024.85 1024.26 1023.67 1023.09 1022.56 1022.08 1021.66 1021.32 1021.03 1020.78 1020.55 1020.32 1020.06 1019.75 1019.37 1018.91 1018.38 1017.77 1017.10 1016.40 1015.69 1014.98 1014.31 1013.69
1025.29 1025.57 1025.81 1026.01 1026.18 1026.31 1026.41 1026.51 1026.58 1026.65 1026.70 1026.73 1026.72 1026.67 1026.56 1026.37 1026.11 1025.77 1025.35 1024.87 1024.34 1023.78 1023.22 1022.67 1022.15 1021.68 1021.27 1020.91 1020.60 1020.33 1020.07 1019.82 1019.54 1019.23 1018.87 1018.45 1017.97 1017.43 1016.85 1016.24 1015.61 1014.99 1014.38 1013.82
1025.04 1025.33 1025.59 1025.80 1025.98 1026.12 1026.24 1026.33 1026.39 1026.44 1026.46 1026.44 1026.40 1026.30 1026.14 1025.92 1025.64 1025.29 1024.88 1024.41 1023.90 1023.37 1022.83 1022.30 1021.80 1021.32 1020.89 1020.51 1020.16 1019.84 1019.54 1019.25 1018.94 1018.61 1018.26 1017.86 1017.43 1016.95 1016.45 1015.92 1015.39 1014.85 1014.33 1013.83
Thickness
5437 5442 5441 5438 5435 5430 5425 5431 5433 5445 5449 5456 5454 5452 5450 5448 5444 5442 5441 5440 5439 5437 5436 5436 5436 5435 5434 5433 5432 5432 5432 5431 5432 5433 5433 5433 5433 5433 5433 5433 5433 5432 5432 5432
5425 5434 5428 5426 5432 5430 5425 5427 5429 5433 5439 5450 5446 5443 5441 5438 5436 5433 5432 5431 5430 5428 5427 5426 5426 5425 5425 5423 5423 5423 5422 5422 5423 5423 5424 5423 5423 5423 5423 5423 5423 5422 5422 5422
5419 5420 5417 5416 5430 5427 5426 5427 5425 5426 5436 5440 5437 5433 5430 5428 5427 5425 5424 5422 5420 5419 5418 5417 5417 5416 5415 5414 5414 5414 5414 5414 5414 5414 5414 5415 5415 5414 5414 5414 5414 5413 5413 5413
5405 5407 5403 5434 5435 5431 5424 5424 5424 5425 5427 5426 5424 5422 5421 5421 5419 5417 5416 5413 5412 5410 5409 5408 5408 5407 5406 5406 5405 5405 5405 5405 5405 5405 5406 5406 5406 5406 5406 5405 5405 5405 5405 5405
5394 5397 5410 5428 5425 5420 5413 5414 5419 5415 5416 5416 5414 5413 5414 5415 5412 5409 5407 5405 5403 5402 5401 5400 5399 5398 5398 5397 5397 5397 5396 5397 5397 5397 5398 5398 5398 5398 5398 5397 5397 5397 5397 5396
5389 5389 5397 5421 5414 5412 5408 5403 5412 5408 5406 5405 5403 5400 5405 5405 5403 5401 5399 5397 5395 5393 5392 5391 5391 5390 5389 5389 5388 5389 5389 5389 5390 5390 5390 5390 5391 5390 5390 5390 5390 5389 5388 5387
5381 5382 5396 5406 5403 5402 5396 5401 5401 5400 5397 5394 5392 5392 5394 5395 5394 5392 5390 5388 5387 5385 5384 5384 5383 5382 5381 5381 5381 5381 5382 5382 5382 5383 5383 5384 5383 5383 5383 5382 5382 5381 5380 5379
5376 5376 5391 5395 5392 5389 5391 5393 5392 5390 5388 5387 5385 5386 5386 5385 5384 5383 5380 5379 5378 5377 5376 5376 5375 5374 5374 5374 5374 5374 5374 5375 5375 5375 5376 5377 5376 5375 5375 5374 5373 5373 5372 5371
5383 5388 5392 5389 5387 5387 5385 5383 5383 5381 5380 5379 5376 5376 5375 5375 5374 5373 5372 5370 5369 5368 5368 5367 5367 5366 5366 5366 5366 5366 5366 5366 5366 5367 5368 5368 5368 5368 5367 5366 5365 5365 5364 5363
5375 5381 5384 5383 5381 5379 5377 5374 5374 5373 5372 5370 5368 5367 5366 5365 5364 5364 5364 5362 5361 5360 5360 5359 5359 5359 5358 5359 5358 5358 5358 5358 5359 5359 5360 5360 5361 5361 5359 5358 5358 5357 5356 5356
5364 5372 5374 5378 5375 5372 5370 5368 5367 5366 5365 5363 5361 5359 5358 5356 5356 5356 5356 5355 5354 5352 5352 5352 5352 5352 5352 5351 5351 5351 5351 5351 5351 5352 5352 5353 5353 5353 5353 5352 5351 5351 5350 5349
5365 5368 5364 5367 5367 5364 5361 5360 5359 5357 5356 5356 5354 5352 5350 5349 5348 5348 5347 5347 5345 5345 5344 5344 5344 5344 5344 5344 5344 5343 5343 5344 5344 5344 5345 5345 5345 5345 5346 5345 5345 5344 5344 5343
5362 5362 5360 5360 5359 5357 5354 5352 5352 5350 5348 5347 5346 5344 5343 5342 5341 5340 5339 5338 5338 5337 5337 5337 5337 5337 5337 5337 5337 5336 5335 5336 5336 5337 5338 5338 5338 5338 5338 5338 5338 5338 5338 5338
5356 5353 5351 5351 5349 5348 5346 5344 5343 5342 5340 5339 5337 5336 5334 5333 5333 5332 5332 5331 5331 5331 5331 5331 5330 5330 5331 5330 5330 5329 5329 5329 5330 5330 5330 5330 5331 5331 5331 5331 5331 5331 5331 5332
5347 5345 5343 5342 5340 5339 5337 5335 5334 5333 5332 5330 5329 5327 5326 5325 5324 5325 5325 5325 5325 5325 5325 5325 5324 5324 5324 5324 5323 5323 5322 5323 5323 5324 5324 5324 5324 5324 5325 5325 5325 5325 5325 5325
5339 5338 5336 5334 5332 5331 5329 5327 5326 5325 5324 5323 5321 5320 5319 5318 5317 5317 5318 5318 5318 5319 5319 5318 5318 5318 5318 5318 5317 5317 5317 5318 5318 5317 5317 5317 5317 5318 5318 5318 5318 5319 5319 5319
5330 5329 5328 5326 5325 5323 5322 5320 5319 5318 5317 5315 5314 5313 5312 5311 5311 5311 5311 5311 5311 5312 5312 5313 5313 5313 5312 5312 5311 5311 5311 5311 5312 5311 5311 5311 5311 5311 5311 5311 5312 5312 5313 5313
5324 5323 5322 5320 5318 5317 5316 5315 5313 5312 5310 5309 5308 5306 5305 5305 5304 5305 5305 5305 5306 5306 5307 5307 5307 5307 5307 5306 5306 5305 5305 5305 5305 5305 5306 5305 5306 5306 5306 5306 5306 5306 5307 5308
5317 5315 5314 5314 5312 5311 5309 5308 5307 5306 5305 5303 5302 5301 5300 5299 5299 5299 5300 5299 5300 5301 5302 5303 5304 5303 5302 5301 5302 5301 5301 5301 5301 5301 5301 5301 5301 5300 5301 5301 5301 5301 5302 5303
5310 5309 5308 5307 5306 5304 5303 5302 5301 5300 5299 5298 5297 5295 5295 5295 5295 5294 5295 5295 5296 5297 5298 5299 5298 5298 5298 5297 5298 5297 5296 5296 5296 5296 5296 5296 5295 5296 5296 5296 5297 5297 5298 5298
5302 5302 5301 5300 5299 5298 5297 5296 5295 5295 5294 5293 5291 5290 5290 5290 5290 5290 5290 5292 5294 5294 5294 5295 5294 5294 5294 5294 5293 5293 5292 5292 5291 5291 5291 5291 5291 5291 5292 5292 5293 5293 5294 5295
5296 5295 5294 5293 5292 5292 5291 5290 5290 5289 5288 5287 5286 5286 5285 5285 5285 5285 5286 5287 5290 5291 5290 5290 5290 5290 5290 5290 5289 5288 5288 5287 5287 5287 5287 5287 5287 5287 5288 5289 5289 5290 5291 5292
5290 5290 5289 5288 5287 5286 5286 5285 5285 5284 5283 5282 5282 5281 5280 5281 5281 5281 5283 5285 5285 5286 5286 5286 5287 5287 5288 5286 5284 5284 5283 5283 5283 5283 5283 5283 5284 5284 5285 5285 5286 5287 5287 5288
5285 5284 5284 5283 5282 5282 5282 5282 5281 5280 5278 5278 5277 5277 5276 5276 5277 5278 5279 5281 5282 5283 5282 5283 5284 5284 5283 5281 5280 5280 5279 5279 5279 5279 5280 5280 5280 5281 5281 5282 5282 5283 5283 5284
5280 5279 5279 5278 5278 5279 5279 5278 5276 5275 5274 5274 5274 5274 5273 5273 5273 5274 5275 5276 5277 5278 5277 5278 5279 5279 5277 5276 5275 5275 5275 5276 5276 5276 5277 5277 5277 5277 5278 5278 5278 5279 5279 5280
5276 5276 5276 5275 5274 5274 5274 5273 5272 5271 5271 5271 5271 5271 5270 5270 5270 5271 5271 5271 5271 5272 5272 5272 5272 5272 5272 5271 5271 5270 5270 5271 5271 5272 5272 5273 5273 5273 5274 5274 5275 5275 5276 5277
5272 5272 5271 5271 5270 5270 5269 5268 5268 5267 5267 5267 5267 5267 5267 5267 5267 5267 5267 5267 5267 5267 5267 5267 5267 5266 5266 5266 5266 5266 5266 5266 5267 5267 5268 5269 5269 5270 5270 5271 5271 5272 5273 5274